Time,TemperatureF,DewpointF,PressureIn,WindDirection,WindDirectionDegrees,WindSpeedMPH,WindSpeedGustMPH,Humidity,HourlyPrecipIn,Conditions,Clouds,dailyrainin,SolarRadiationWatts/m^2,SoftwareType,DateUTC
2013-05-09 00:02:00,57.0,57.0,-100.00,ENE,66,5.0,6.0,99,0.00,,,0.98,0.000000,,2013-05-09 05:02:00,
2013-05-09 00:11:00,57.0,56.0,-100.00,NNE,24,8.0,10.0,98,0.00,,,0.96,0.000000,,2013-05-09 05:11:00,
2013-05-09 00:32:00,57.0,56.0,-100.00,NNE,24,8.0,10.0,98,0.00,,,0.96,0.000000,,2013-05-09 05:32:00,
2013-05-09 00:42:00,57.0,56.0,-100.00,NNE,24,8.0,10.0,98,0.00,,,0.96,0.000000,,2013-05-09 05:42:00,
2013-05-09 00:52:00,57.0,56.0,-100.00,NNE,24,8.0,10.0,98,0.00,,,0.96,0.000000,,2013-05-09 05:52:00,
2013-05-09 01:02:00,57.0,56.0,-100.00,NNE,24,8.0,10.0,98,0.00,,,0.96,0.000000,,2013-05-09 06:02:00,
2013-05-09 01:11:00,57.0,57.0,-100.00,NE,45,5.0,11.0,100,0.00,,,0.95,0.000000,,2013-05-09 06:11:00,
2013-05-09 01:42:00,57.0,57.0,-100.00,NE,45,5.0,11.0,100,0.00,,,0.95,0.000000,,2013-05-09 06:42:00,
2013-05-09 01:52:00,57.0,57.0,-100.00,NE,45,5.0,11.0,100,0.00,,,0.95,0.000000,,2013-05-09 06:52:00,
2013-05-09 02:01:00,57.0,57.0,-100.00,NE,45,5.0,11.0,100,0.00,,,0.95,0.000000,,2013-05-09 07:01:00,
2013-05-09 02:11:00,56.0,56.0,-100.00,NE,46,6.0,11.0,100,0.00,,,0.95,0.000000,,2013-05-09 07:11:00,
2013-05-09 02:43:00,56.0,56.0,-100.00,NE,46,6.0,11.0,100,0.00,,,0.95,0.000000,,2013-05-09 07:43:00,
2013-05-09 02:52:00,56.0,56.0,-100.00,NE,46,6.0,11.0,100,0.00,,,0.95,0.000000,,2013-05-09 07:52:00,
2013-05-09 03:02:00,56.0,56.0,-100.00,NE,46,6.0,11.0,100,0.00,,,0.95,0.000000,,2013-05-09 08:02:00,
2013-05-09 03:11:00,56.0,56.0,-100.00,NNE,19,7.0,14.0,100,0.00,,,0.90,0.000000,,2013-05-09 08:11:00,
2013-05-09 03:42:00,56.0,56.0,-100.00,NNE,19,7.0,14.0,100,0.00,,,0.90,0.000000,,2013-05-09 08:42:00,
2013-05-09 03:52:00,56.0,56.0,-100.00,NNE,19,7.0,14.0,100,0.00,,,0.90,0.000000,,2013-05-09 08:52:00,
2013-05-09 04:02:00,56.0,56.0,-100.00,NNE,19,7.0,14.0,100,0.00,,,0.90,0.000000,,2013-05-09 09:02:00,
2013-05-09 04:11:00,56.0,56.0,-100.00,NE,39,8.0,14.0,100,0.00,,,0.81,0.000000,,2013-05-09 09:11:00,
2013-05-09 04:32:00,56.0,56.0,-100.00,NE,39,8.0,14.0,100,0.00,,,0.81,0.000000,,2013-05-09 09:32:00,
2013-05-09 04:43:00,56.0,56.0,-100.00,NE,39,8.0,14.0,100,0.00,,,0.81,0.000000,,2013-05-09 09:43:00,
2013-05-09 04:53:00,56.0,56.0,-100.00,NE,39,8.0,14.0,100,0.00,,,0.81,0.000000,,2013-05-09 09:53:00,
2013-05-09 05:02:00,56.0,56.0,-100.00,NE,39,8.0,14.0,100,0.00,,,0.81,0.000000,,2013-05-09 10:02:00,
2013-05-09 05:11:00,56.0,56.0,-100.00,NE,35,8.0,11.0,100,0.00,,,0.59,0.000000,,2013-05-09 10:11:00,
2013-05-09 05:42:00,56.0,56.0,-100.00,NE,35,8.0,11.0,100,0.00,,,0.59,0.000000,,2013-05-09 10:42:00,
2013-05-09 05:52:00,56.0,56.0,-100.00,NE,35,8.0,11.0,100,0.00,,,0.59,0.000000,,2013-05-09 10:52:00,
2013-05-09 06:02:00,56.0,56.0,-100.00,NE,35,8.0,11.0,100,0.00,,,0.59,0.000000,,2013-05-09 11:02:00,
2013-05-09 06:11:00,56.0,56.0,-100.00,North,7,6.0,11.0,99,0.00,,,0.50,0.000000,,2013-05-09 11:11:00,
2013-05-09 06:32:00,56.0,56.0,-100.00,North,7,6.0,11.0,99,0.00,,,0.50,0.000000,,2013-05-09 11:32:00,
2013-05-09 06:42:00,56.0,56.0,-100.00,North,7,6.0,11.0,99,0.00,,,0.50,0.000000,,2013-05-09 11:42:00,
2013-05-09 06:52:00,56.0,56.0,-100.00,North,7,6.0,11.0,99,0.00,,,0.50,0.000000,,2013-05-09 11:52:00,
2013-05-09 07:01:00,56.0,56.0,-100.00,North,7,6.0,11.0,99,0.00,,,0.50,0.000000,,2013-05-09 12:01:00,
2013-05-09 07:11:00,56.0,56.0,-100.00,NNW,347,5.0,11.0,100,0.00,,,-99.99,17.000000,,2013-05-09 12:11:00,
2013-05-09 07:43:00,56.0,56.0,-100.00,NNW,347,5.0,11.0,100,0.00,,,-99.99,17.000000,,2013-05-09 12:43:00,
2013-05-09 07:52:00,56.0,56.0,-100.00,NNW,347,5.0,11.0,100,0.00,,,-99.99,17.000000,,2013-05-09 12:52:00,
2013-05-09 08:01:00,56.0,56.0,-100.00,NNW,347,5.0,11.0,100,0.00,,,-99.99,17.000000,,2013-05-09 13:01:00,
2013-05-09 08:11:00,56.0,56.0,-100.00,NNW,339,4.0,9.0,100,0.00,,,0.38,31.000000,,2013-05-09 13:11:00,
2013-05-09 08:32:00,56.0,56.0,-100.00,NNW,339,4.0,9.0,100,0.00,,,0.38,31.000000,,2013-05-09 13:32:00,
2013-05-09 08:42:00,56.0,56.0,-100.00,NNW,339,4.0,9.0,100,0.00,,,0.38,31.000000,,2013-05-09 13:42:00,
2013-05-09 08:52:00,56.0,56.0,-100.00,NNW,339,4.0,9.0,100,0.00,,,0.38,31.000000,,2013-05-09 13:52:00,
2013-05-09 09:01:00,56.0,56.0,-100.00,NNW,339,4.0,9.0,100,0.00,,,0.38,31.000000,,2013-05-09 14:01:00,
2013-05-09 09:11:00,57.0,56.0,-100.00,North,354,5.0,13.0,98,0.00,,,0.31,60.000000,,2013-05-09 14:11:00,
2013-05-09 09:32:00,57.0,56.0,-100.00,North,354,5.0,13.0,98,0.00,,,0.31,60.000000,,2013-05-09 14:32:00,
2013-05-09 09:42:00,57.0,56.0,-100.00,North,354,5.0,13.0,98,0.00,,,0.31,60.000000,,2013-05-09 14:42:00,
2013-05-09 09:52:00,57.0,56.0,-100.00,North,354,5.0,13.0,98,0.00,,,0.31,60.000000,,2013-05-09 14:52:00,
2013-05-09 10:01:00,57.0,56.0,-100.00,North,354,5.0,13.0,98,0.00,,,0.31,60.000000,,2013-05-09 15:01:00,
2013-05-09 10:11:00,58.0,57.0,-100.00,North,6,9.0,13.0,97,0.00,,,0.27,91.000000,,2013-05-09 15:11:00,
2013-05-09 10:43:00,58.0,57.0,-100.00,North,6,9.0,13.0,97,0.00,,,0.27,91.000000,,2013-05-09 15:43:00,
2013-05-09 10:53:00,58.0,57.0,-100.00,North,6,9.0,13.0,97,0.00,,,0.27,91.000000,,2013-05-09 15:53:00,
2013-05-09 11:03:00,58.0,57.0,-100.00,North,6,9.0,13.0,97,0.00,,,0.27,91.000000,,2013-05-09 16:03:00,
2013-05-09 11:11:00,58.0,57.0,-100.00,NNE,16,15.0,20.0,97,0.00,,,0.20,123.000000,,2013-05-09 16:11:00,
2013-05-09 11:42:00,58.0,57.0,-100.00,NNE,16,15.0,20.0,97,0.00,,,0.20,123.000000,,2013-05-09 16:42:00,
2013-05-09 11:53:00,58.0,57.0,-100.00,NNE,16,15.0,20.0,97,0.00,,,0.20,123.000000,,2013-05-09 16:53:00,
2013-05-09 12:02:00,58.0,57.0,-100.00,NNE,16,15.0,20.0,97,0.00,,,0.20,123.000000,,2013-05-09 17:02:00,
2013-05-09 12:11:00,58.0,56.0,-100.00,NNE,15,13.0,22.0,94,0.00,,,0.15,173.000000,,2013-05-09 17:11:00,
2013-05-09 12:32:00,58.0,56.0,-100.00,NNE,15,13.0,22.0,94,0.00,,,0.15,173.000000,,2013-05-09 17:32:00,
2013-05-09 12:42:00,58.0,56.0,-100.00,NNE,15,13.0,22.0,94,0.00,,,0.15,173.000000,,2013-05-09 17:42:00,
2013-05-09 12:55:00,58.0,56.0,-100.00,NNE,15,13.0,22.0,94,0.00,,,0.15,173.000000,,2013-05-09 17:55:00,
2013-05-09 13:01:00,58.0,56.0,-100.00,NNE,15,13.0,22.0,94,0.00,,,0.15,173.000000,,2013-05-09 18:01:00,
2013-05-09 13:11:00,58.0,56.0,-100.00,NNE,21,11.0,20.0,92,0.00,,,0.08,98.000000,,2013-05-09 18:11:00,
2013-05-09 13:42:00,58.0,56.0,-100.00,NNE,21,11.0,20.0,92,0.00,,,0.08,98.000000,,2013-05-09 18:42:00,
2013-05-09 13:52:00,58.0,56.0,-100.00,NNE,21,11.0,20.0,92,0.00,,,0.08,98.000000,,2013-05-09 18:52:00,
2013-05-09 14:01:00,58.0,56.0,-100.00,NNE,21,11.0,20.0,92,0.00,,,0.08,98.000000,,2013-05-09 19:01:00,
2013-05-09 15:11:00,59.0,56.0,-100.00,North,10,12.0,23.0,90,-99.99,,,0.00,156.000000,,2013-05-09 20:11:00,
2013-05-09 15:32:00,59.0,56.0,-100.00,North,10,12.0,23.0,90,-99.99,,,0.00,156.000000,,2013-05-09 20:32:00,
2013-05-09 15:42:00,59.0,56.0,-100.00,North,10,12.0,23.0,90,-99.99,,,0.00,156.000000,,2013-05-09 20:42:00,
2013-05-09 15:52:00,59.0,56.0,-100.00,North,10,12.0,23.0,90,-99.99,,,0.00,156.000000,,2013-05-09 20:52:00,
2013-05-09 16:02:00,59.0,56.0,-100.00,North,10,12.0,23.0,90,-99.99,,,0.00,156.000000,,2013-05-09 21:02:00,
2013-05-09 17:11:00,60.0,56.0,-100.00,NNE,18,11.0,19.0,87,-99.99,,,0.00,102.000000,,2013-05-09 22:11:00,
2013-05-09 17:33:00,60.0,56.0,-100.00,NNE,18,11.0,19.0,87,-99.99,,,0.00,102.000000,,2013-05-09 22:33:00,
2013-05-09 17:42:00,60.0,56.0,-100.00,NNE,18,11.0,19.0,87,-99.99,,,0.00,102.000000,,2013-05-09 22:42:00,
2013-05-09 17:52:00,60.0,56.0,-100.00,NNE,18,11.0,19.0,87,-99.99,,,0.00,102.000000,,2013-05-09 22:52:00,
2013-05-09 18:02:00,60.0,56.0,-100.00,NNE,18,11.0,19.0,87,-99.99,,,0.00,102.000000,,2013-05-09 23:02:00,
2013-05-09 18:11:00,61.0,55.0,-100.00,NNE,15,10.0,17.0,81,0.00,,,0.00,106.000000,,2013-05-09 23:11:00,
2013-05-09 18:32:00,61.0,55.0,-100.00,NNE,15,10.0,17.0,81,0.00,,,0.00,106.000000,,2013-05-09 23:32:00,
2013-05-09 18:42:00,61.0,55.0,-100.00,NNE,15,10.0,17.0,81,0.00,,,0.00,106.000000,,2013-05-09 23:42:00,
2013-05-09 18:52:00,61.0,55.0,-100.00,NNE,15,10.0,17.0,81,0.00,,,0.00,106.000000,,2013-05-09 23:52:00,
2013-05-09 19:01:00,61.0,55.0,-100.00,NNE,15,10.0,17.0,81,0.00,,,0.00,106.000000,,2013-05-10 00:01:00,
2013-05-09 20:11:00,59.0,54.0,-100.00,NNE,15,10.0,17.0,85,-99.99,,,0.00,43.000000,,2013-05-10 01:11:00,
2013-05-09 20:32:00,59.0,54.0,-100.00,NNE,15,10.0,17.0,85,-99.99,,,0.00,43.000000,,2013-05-10 01:32:00,
2013-05-09 20:42:00,59.0,54.0,-100.00,NNE,15,10.0,17.0,85,-99.99,,,0.00,43.000000,,2013-05-10 01:42:00,
2013-05-09 20:52:00,59.0,54.0,-100.00,NNE,15,10.0,17.0,85,-99.99,,,0.00,43.000000,,2013-05-10 01:52:00,
2013-05-09 21:02:00,59.0,54.0,-100.00,NNE,15,10.0,17.0,85,-99.99,,,0.00,43.000000,,2013-05-10 02:02:00,
2013-05-09 21:11:00,57.0,53.0,-100.00,NNE,23,10.0,17.0,87,0.00,,,0.00,4.000000,,2013-05-10 02:11:00,
2013-05-09 21:32:00,57.0,53.0,-100.00,NNE,23,10.0,17.0,87,0.00,,,0.00,4.000000,,2013-05-10 02:32:00,
2013-05-09 21:42:00,57.0,53.0,-100.00,NNE,23,10.0,17.0,87,0.00,,,0.00,4.000000,,2013-05-10 02:42:00,
2013-05-09 21:52:00,57.0,53.0,-100.00,NNE,23,10.0,17.0,87,0.00,,,0.00,4.000000,,2013-05-10 02:52:00,
2013-05-09 22:01:00,57.0,53.0,-100.00,NNE,23,10.0,17.0,87,0.00,,,0.00,4.000000,,2013-05-10 03:01:00,
2013-05-09 22:11:00,54.0,51.0,-100.00,NNE,18,8.0,15.0,91,0.00,,,0.00,0.000000,,2013-05-10 03:11:00,
2013-05-09 22:33:00,54.0,51.0,-100.00,NNE,18,8.0,15.0,91,0.00,,,0.00,0.000000,,2013-05-10 03:33:00,
2013-05-09 22:43:00,54.0,51.0,-100.00,NNE,18,8.0,15.0,91,0.00,,,0.00,0.000000,,2013-05-10 03:43:00,
2013-05-09 22:53:00,54.0,51.0,-100.00,NNE,18,8.0,15.0,91,0.00,,,0.00,0.000000,,2013-05-10 03:53:00,
2013-05-09 23:03:00,54.0,51.0,-100.00,NNE,18,8.0,15.0,91,0.00,,,0.00,0.000000,,2013-05-10 04:03:00,
2013-05-09 23:11:00,52.0,50.0,-100.00,NNE,19,8.0,15.0,94,0.00,,,0.00,0.000000,,2013-05-10 04:11:00,
2013-05-09 23:33:00,52.0,50.0,-100.00,NNE,19,8.0,15.0,94,0.00,,,0.00,0.000000,,2013-05-10 04:33:00,
2013-05-09 23:43:00,52.0,50.0,-100.00,NNE,19,8.0,15.0,94,0.00,,,0.00,0.000000,,2013-05-10 04:43:00,
2013-05-09 23:53:00,52.0,50.0,-100.00,NNE,19,8.0,15.0,94,0.00,,,0.00,0.000000,,2013-05-10 04:53:00,